Hourly Data Report for September 01, 2016

SHEARWATER RCS
NOVA SCOTIA

44°37'47.000" N
63°30'48.000" W
24.00 m
8205092
71264
AAW

Download Data

Hourly Data (September 2016)
Hourly Data Report for September 1, 2016
TIME Temp Definition
°C
Dew Point Definition
°C
Rel Hum Definition
%
Wind Dir Definition
10's deg

Wind Spd Definition
km/h
Visibility Definition
km
Stn Press Definition
kPa
Hmdx Definition


Wind Chill Definition


Weather Definition


00:00 16.6 15.1 91 24 7   100.85     LegendNANA
01:00 16.7 15.3 92 25 3   100.82     LegendNANA
02:00 17.0 15.7 92 22 3   100.80     LegendNANA
03:00 16.9 15.6 92 23 10   100.76     LegendNANA
04:00 17.0 15.8 92 22 5   100.74     LegendNANA
05:00 17.1 15.9 93 18 6   100.73     LegendNANA
06:00 17.0 15.8 93 18 6   100.72     LegendNANA
07:00 17.7 16.6 94 22 5   100.74     LegendNANA
08:00 18.6 17.2 92 19 4   100.74     LegendNANA
09:00 18.8 17.1 90 19 3   100.71     LegendNANA
10:00 19.8 16.9 84 17 6   100.74     LegendNANA
11:00 19.9 17.2 85 15 7   100.73     LegendNANA
12:00 20.3 17.4 83 16 7   100.72 26   LegendNANA
13:00 21.8 18.2 80 19 5   100.69 28   LegendNANA
14:00 20.1 17.1 83 15 11   100.67 25   LegendNANA
15:00 19.0 17.0 88 17 12   100.66     LegendNANA
16:00 19.8 17.3 86 19 8   100.65     LegendNANA
17:00 19.6 17.2 87 15 7   100.65     LegendNANA
18:00 19.1 17.2 88 20 8   100.62     LegendNANA
19:00 18.8 17.2 91 23 7   100.61     LegendNANA
20:00 18.2 16.9 92 14 1   100.65     LegendNANA
21:00 17.9 16.6 92 19 2   100.67     LegendNANA
22:00 17.6 16.5 93 20 4   100.67     LegendNANA
23:00 17.2 16.2 94 32 4   100.67     LegendNANA

Notes on Data Quality.

Legend

  • E = Estimated
  • M = Missing
  • NA = Not Available*
  • [empty] = Indicates an unobserved value
Date modified: